Home   Weather   Glendale   Past weeks

Flag for USA Past Weather in Glendale, Arizona, USA — Yesterday and Last 2 Weeks

Now
46 °F

Clear.


Feels Like: 46 °F
Forecast: 47 / 54 °F
Wind: No wind

Location: Phoenix-Deer Valley Municipal Airport

Current Time: Jan 19, 2017 at 4:00:16 am

Latest Report: Jan 19, 2017 at 2:53 am


Visibility: 10 mi

Pressure: 29.98 "Hg

Humidity: 83%

Dew Point: 41 °F

Location of GlendaleLocation

Past Weather in Glendale — Graph

°F

Glendale Temperature Yesterday

Maximum temperature yesterday: 63 °F (at 3:53 pm)
Minimum temperature yesterday: 43 °F (at 4:53 am)
Average temperature yesterday: 52 °F

High & Low Weather Summary for the Past Weeks

 TemperatureHumidityPressure
High71 °F (Jan 8, 3:53 pm)100% (Jan 15, 3:53 am)30.31 "Hg (Jan 15, 3:53 am)
Low43 °F (Jan 18, 4:53 am)26% (Jan 6, 12:53 pm)29.77 "Hg (Jan 6, 12:53 am)
Average56 °F63%30.00 "Hg
* Reported Jan 4 2:53 am — Jan 19 2:53 am, Glendale, Weather by CustomWeather, © 2017

Note: Actual official high and low records may vary slightly from our data, if they occured in-between our weather recording intervals... More about our weather records

Advertising

Glendale Weather History for the Previous 24 Hours

Scroll right to see more
 ConditionsComfort  
Time TempWeatherWind HumidityBarometerVisibility
2:53 am
Thu, Jan 19
46 °FClear.No wind83%29.98 "Hg10 mi
1:53 am47 °FClear.No wind80%29.99 "Hg10 mi
12:53 am48 °FClear.No wind77%29.99 "Hg10 mi
11:53 pm
Wed, Jan 18
48 °FClear.No wind77%30.01 "Hg10 mi
10:53 pm50 °FClear.5 mph71%30.01 "Hg10 mi
9:53 pm50 °FClear.No wind74%30.03 "Hg10 mi
8:53 pm52 °FClear.No wind66%30.03 "Hg10 mi
7:53 pm55 °FClear.No wind59%30.02 "Hg10 mi
6:53 pm58 °FClear.3 mph50%30.01 "Hg10 mi
5:53 pm61 °FClear.5 mph44%29.99 "Hg10 mi
4:53 pm63 °FSunny.7 mph41%29.99 "Hg10 mi
3:53 pm63 °FSunny.7 mph41%30.00 "Hg10 mi
2:53 pm62 °FSunny.5 mph43%30.01 "Hg10 mi
1:53 pm62 °FSunny.5 mph44%30.03 "Hg10 mi
12:53 pm61 °FSunny.No wind46%30.07 "Hg10 mi
11:53 am58 °FSunny.No wind54%30.11 "Hg10 mi
10:53 am55 °FSunny.No wind59%30.15 "Hg10 mi
9:53 am52 °FSunny.No wind66%30.14 "Hg10 mi
8:53 am49 °FSunny.6 mph69%30.13 "Hg10 mi
7:53 am45 °FSunny.No wind80%30.11 "Hg10 mi
6:53 am44 °FClear.No wind82%30.11 "Hg10 mi
5:53 am43 °FClear.No wind89%30.09 "Hg10 mi
4:53 am43 °FClear.No wind89%30.08 "Hg10 mi
Weather by CustomWeather, © 2017

See weather overviewHow to use our weather pages